Location: Lecco
(45.8566°N, 9.3977°E)
Time: 11:39:13
(UTC+02:00)

Explorer 11/Cluster Stage 4 - Pass Details

Date: 20 August 2020
Orbit: 467 x 1258 km, 28.8° (Epoch: 24 September)

Event Time Altitude Azimuth Distance (km) Brightness Sun altitude
Rises 20:58:18 0° 234° (SW) 3,466 10.3 -6.8°
Reaches altitude 10° 21:01:32 10° 216° (SW) 2,678 9.4 -7.3°
Maximum altitude 21:05:54 19° 174° (S) 2,288 8.7 -7.9°
Drops below altitude 10° 21:10:44 10° 134° (SE) 3,028 9.0 -8.7°
Enters shadow 21:11:05 - 132° (SE) 3,112 9.0 -8.7°
Sets 21:14:41 0° 118° (ESE) 4,094 - -9.3°
